Hauptseite
METAR-TAF:

METAR-TAF

Flughäfen :

Bohrplattform

Ula, Norwegen

Breite: 59-06-39N, Länge: 2-50-45E, Höhe: 0 m

Beobachtung

Neuester Wetterbericht von vor 27 Minuten, um 18:50 UTC
Wind 15 kt aus unterschiedlichen Richtungen
Temperatur 15°C
Luftfeuchtigkeit 82%
Luftdruck 1013 hPa
Sichtweite 10 km oder mehr

METAR: ENLA 191850Z AUTO VRB15KT 9999NDV OVC025/// 15/12 Q1013 W///S3

Zeit: 21:17 (19:17 UTC)


TAF: fehlend

Wetterbeobachtungen und Prognosen von mehr als 4000 Flughäfen (METAR und TAF Bericht).

Die verfügbaren Stationen werden durch gelbe und rote Markierungen auf der Karte dargestellt.

Führen Sie die Maus auf sie, um den Namen der Station zu sehen.

Darauf klicken, um die Beobachtung von Wetterbeobachtungen und Prognosen zu sehen.

Um die Karte zu ändern : klicken Sie auf den grünen Tasten mit einem schwarzen Kreuz Zum Vergrößern, auf den grünen Button mit einem Gedankenstrich zu verkleinern, oder auf die grünen Pfeile für benachbarte Karten.


METAR-TAF: